W6ROY Weather Reports


time (UTC)temp
C
wind
direction
speed
KPH
gust
KPH
rain 1hr
cm
rain 24hr
cm
rain mn
cm
humidity
%
barometer
mb
20260504081549 10 0 0.0 0.0 0.00 0.10 0.00 87 1019.0
20260504080201 11 0 0.0 0.0 0.00 0.10 0.00 87 1019.0
20260504044543 13 0 0.0 0.0 0.00 0.13 0.13 83 1019.7
20260504043046 13 0 0.0 0.0 0.00 0.13 0.13 82 1019.7
20260504041551 13 0 0.0 0.0 0.00 0.13 0.13 82 1019.6
20260504040123 13 0 1.6 4.8 0.00 0.13 0.13 81 1019.7
20260504034547 14 0 0.0 1.6 0.00 0.13 0.13 81 1019.5
20260504033049 15 0 0.0 3.2 0.00 0.13 0.13 80 1019.6
20260504031553 15 0 0.0 0.0 0.00 0.13 0.13 79 1019.7
20260504030045 15 0 0.0 0.0 0.00 0.13 0.13 78 1019.6
20260504024538 16 0 0.0 0.0 0.00 0.13 0.13 76 1019.7
20260504023038 16 0 0.0 0.0 0.00 0.13 0.13 74 1019.6
20260504021543 16 0 0.0 0.0 0.00 0.13 0.13 72 1019.3
20260504020050 17 0 0.0 3.2 0.00 0.13 0.13 70 1019.3
20260504014543 17 0 0.0 1.6 0.00 0.15 0.13 67 1019.1
20260504013043 18 0 0.0 0.0 0.00 0.15 0.13 63 1018.9
20260504011546 18 0 0.0 1.6 0.00 0.15 0.13 61 1018.8
20260504010048 20 255 0.0 3.2 0.00 0.15 0.13 58 1018.6
20260504004542 20 0 0.0 4.8 0.00 0.15 0.13 55 1018.5
20260504003041 21 0 0.0 3.2 0.00 0.15 0.13 53 1018.4
20260504001553 21 207 1.6 12.9 0.00 0.15 0.13 52 1018.3
20260504000051 22 261 1.6 6.4 0.00 0.15 0.13 50 1018.2
20260503234602 22 215 1.6 14.5 0.00 0.18 0.13 47 1018.2
20260503233048 24 198 1.6 14.5 0.00 0.18 0.13 43 1018.2
20260503231543 25 238 3.2 12.9 0.00 0.18 0.13 36 1018.1
20260503230048 25 271 1.6 14.5 0.00 0.18 0.13 36 1018.1
20260503224544 25 257 1.6 9.7 0.00 0.18 0.13 34 1018.0
20260503223044 25 288 1.6 6.4 0.00 0.18 0.13 33 1018.0
20260503221557 25 280 1.6 14.5 0.00 0.18 0.13 32 1017.9
20260503220042 25 46 1.6 12.9 0.00 0.18 0.13 35 1018.2
20260503214549 25 201 1.6 6.4 0.00 0.20 0.13 34 1018.2
20260503213046 25 324 1.6 12.9 0.00 0.20 0.13 31 1018.4
20260503211549 26 100 3.2 12.9 0.00 0.20 0.13 31 1018.5
20260503210044 26 46 1.6 9.7 0.00 0.20 0.13 31 1018.6
20260503204544 26 5 3.2 11.3 0.00 0.25 0.13 32 1018.5
20260503203053 26 284 1.6 14.5 0.03 0.25 0.13 30 1018.9
20260503201538 26 289 1.6 4.8 0.03 0.25 0.13 31 1019.0
20260503200040 26 67 4.8 11.3 0.03 0.25 0.13 29 1019.3
20260503194554 26 273 1.6 8.0 0.03 0.33 0.13 34 1019.5
20260503193043 26 327 1.6 9.7 0.00 0.30 0.10 33 1019.8
20260503191541 25 224 1.6 11.3 0.00 0.30 0.10 33 1020.1
20260503190039 25 21 1.6 11.3 0.00 0.30 0.10 32 1020.4
20260503184538 25 281 1.6 9.7 0.00 0.46 0.10 32 1020.6
20260503183044 25 257 1.6 6.4 0.00 0.46 0.10 27 1020.8
20260503181544 25 306 3.2 8.0 0.00 0.46 0.10 33 1020.8
20260503180055 24 326 3.2 9.7 0.03 0.46 0.10 31 1020.8
20260503174540 24 288 3.2 11.3 0.03 0.71 0.10 33 1021.0
20260503173046 23 293 1.6 9.7 0.03 0.71 0.10 35 1021.0
20260503171547 24 350 1.6 11.3 0.03 0.71 0.10 38 1021.2